TimeEST,TemperatureF,Dew PointF,Humidity,Sea Level PressureIn,VisibilityMPH,Wind Direction,Wind SpeedMPH,Gust SpeedMPH,PrecipitationIn,Events,Conditions,WindDirDegrees,DateUTC
12:55 AM,25.3,14.7,64,30.19,10.0,WNW,6.9,-,N/A,,Clear,300,2013-01-03 05:55:00
1:55 AM,25.9,14.9,63,30.19,10.0,NW,5.8,-,N/A,,Partly Cloudy,310,2013-01-03 06:55:00
2:55 AM,26.2,15.3,63,30.19,10.0,NW,5.8,-,N/A,,Partly Cloudy,320,2013-01-03 07:55:00
3:55 AM,25.9,15.3,64,30.18,10.0,NW,6.9,-,N/A,,Scattered Clouds,310,2013-01-03 08:55:00
4:55 AM,24.6,14.9,67,30.18,10.0,NW,4.6,-,N/A,,Clear,310,2013-01-03 09:55:00
5:55 AM,23.4,15.1,71,30.18,10.0,WNW,3.5,-,N/A,,Clear,290,2013-01-03 10:55:00
6:55 AM,23.2,14.2,68,30.19,10.0,Calm,Calm,-,N/A,,Clear,0,2013-01-03 11:55:00
7:55 AM,22.8,14.4,70,30.19,10.0,Calm,Calm,-,N/A,,Clear,0,2013-01-03 12:55:00
8:55 AM,27.3,15.4,61,30.20,10.0,WNW,6.9,-,N/A,,Clear,290,2013-01-03 13:55:00
9:55 AM,29.8,15.8,56,30.20,10.0,Variable,5.8,-,N/A,,Clear,0,2013-01-03 14:55:00
10:55 AM,31.1,14.7,51,30.18,10.0,NW,6.9,-,N/A,,Clear,310,2013-01-03 15:55:00
11:55 AM,32.9,14.4,47,30.14,10.0,West,8.1,-,N/A,,Clear,260,2013-01-03 16:55:00
12:55 PM,32.4,13.3,45,30.12,10.0,WNW,6.9,-,N/A,,Clear,290,2013-01-03 17:55:00
1:55 PM,34.9,11.8,39,30.11,10.0,West,10.4,-,N/A,,Clear,280,2013-01-03 18:55:00
2:55 PM,34.7,11.8,39,30.10,10.0,WNW,8.1,-,N/A,,Clear,290,2013-01-03 19:55:00
3:55 PM,33.4,12.7,42,30.10,10.0,West,6.9,-,N/A,,Clear,280,2013-01-03 20:55:00
4:55 PM,30.9,12.7,47,30.11,10.0,WNW,4.6,-,N/A,,Clear,290,2013-01-03 21:55:00
5:55 PM,29.3,14.4,54,30.12,10.0,West,4.6,-,N/A,,Clear,270,2013-01-03 22:55:00
6:55 PM,27.5,15.4,61,30.13,10.0,West,4.6,-,N/A,,Clear,270,2013-01-03 23:55:00
7:55 PM,25.5,16.0,67,30.13,10.0,WSW,6.9,-,N/A,,Clear,240,2013-01-04 00:55:00
8:55 PM,24.8,16.7,71,30.12,10.0,SW,8.1,-,N/A,,Clear,230,2013-01-04 01:55:00
9:55 PM,25.3,17.6,72,30.12,10.0,SW,8.1,-,N/A,,Clear,230,2013-01-04 02:55:00
10:55 PM,26.4,18.1,71,30.12,10.0,West,5.8,-,N/A,,Clear,260,2013-01-04 03:55:00
11:55 PM,27.3,19.4,72,30.11,10.0,WSW,8.1,-,N/A,,Mostly Cloudy,250,2013-01-04 04:55:00